Location: Brunsen
(51.8651°N, 9.8610°E)
Time: 20:10:08
(UTC+00:00)

CZ-2C R/B - Pass Details

Date: 18 August 2024
Orbit: 782 x 869 km, 98.3° (Epoch: 07 September)

Event Time Altitude Azimuth Distance (km) Brightness Sun altitude
Exits shadow 01:38:58 35° 210° (SSW) 1,335 3.2 -18.9°
Maximum altitude 01:40:51 49° 261° (W) 1,068 2.9 -18.8°
Drops below altitude 10° 01:46:03 10° 336° (NNW) 2,423 5.5 -18.3°
Sets 01:48:28 0° 342° (NNW) 3,346 6.3 -18.1°
